sat.trackr.live / text

‹ back to catalog

JILIN-1 GAOFEN 03D43

NORAD 53448 · 2022-098E

PAYLOAD ACTIVE UNKNOWN

§ Identity

Operator
Country
PRC
Launch date
2022-08-10
Launch site
TAISC
Launch vehicle
Mass (kg)
RCS (m²)

External: N2YO · Heavens-Above · Gunter

§ Orbital elements

Epoch: 2026-09-20T22:48:17.796672Z

Period
90.41 min
Inclination
97.5694°
Eccentricity
0.0003481
Mean motion
15.92679037 rev/d
Perigee alt
292.5 km
Apogee alt
297.1 km
Semi-major
6,672.9 km
B*
6.2548e-4
RAAN
43.7479°
Arg perigee
271.8939°
Mean anomaly
88.1936°
Rev number
22,980

§ Raw data

JILIN-1 GAOFEN 03D431 53448U 22098E   26263.95020598  .00212660  19155-4  62548-3 0  99922 53448  97.5694  43.7479 0003481 271.8939  88.1936 15.92679037229800

JSON: /api/v1/satellites/53448 · /tle

For live sub-satellite position, see the globe view (requires WebGL).

§ Visibility from observer

Set your observer location to see the next 7 days of passes ≥ 10°. The values pass through the URL so the page stays shareable.

No JS? Fill the form by hand. The geolocation button needs JavaScript.